Flag for France Weather past 2 weeks in Nancy, France

Now
88 °F

Passing clouds.


Feels Like: 87 °F
Forecast: 66 / 92 °F
Wind: 8 mph from South

Location: Nancy / Ochey

Current Time: Aug 29, 2015 at 3:45:16 PM

Latest Report: Aug 29, 2015 at 3:00 PM


Visibility: N/A

Pressure: 30.12 "Hg

Humidity: 38%

Dew point: 59 °F

Location of NancyLocation

Historic Weather in Nancy — Graph

°F

Nancy temperature yesterday

Maximum temperature yesterday: 72 °F (at 1:30 PM)
Minimum temperature yesterday: 63 °F (at 11:00 PM)
Average temperature yesterday: 66 °F

Past Weeks' High & Low Weather Summary

 TemperatureHumidityPressure
High86 °F (Aug 27, 4:00 PM)100% (Aug 15, 6:30 AM)30.24 "Hg (Aug 15, 6:30 AM)
Low48 °F (Aug 19, 5:00 AM)26% (Aug 22, 3:30 PM)29.65 "Hg (Aug 24, 6:30 AM)
Average65 °F66%29.99 "Hg
* Reported Aug 14 2:00 PM — Aug 29 2:30 PM, Nancy, Weather by CustomWeather, © 2015

Note: Actual official high and low records may vary slightly from our data, if they occured in-between our weather recording intervals... More about our weather records

Advertising

Nancy weather history for previous 24 hours

 ConditionsComfort  
Time TempWeatherWind HumidityBarometerVisibility
2:30 PM
Sat, Aug 29
86 °FPassing clouds.9 mph40%30.12 "HgN/A
2:00 PM86 °FPassing clouds.8 mph46%30.15 "HgN/A
1:30 PM84 °FPassing clouds.7 mph48%30.15 "HgN/A
1:00 PM84 °FPassing clouds.7 mph48%30.15 "HgN/A
12:00 PM79 °FPassing clouds.6 mph61%30.18 "HgN/A
11:30 AM77 °FPassing clouds.7 mph65%30.18 "HgN/A
11:00 AM77 °FPassing clouds.6 mph61%30.18 "HgN/A
10:00 AM72 °FSunny.3 mph78%30.18 "Hg10 mi
9:30 AM70 °FSunny.5 mph78%30.18 "Hg10 mi
9:00 AM68 °FSunny.5 mph83%30.18 "Hg10 mi
8:00 AM63 °FSunny.2 mph94%30.18 "Hg10 mi
7:30 AM61 °FClear.No wind94%30.18 "Hg10 mi
7:00 AM61 °FClear.No wind94%30.15 "Hg4 mi
6:30 AM59 °FClear.No wind100%30.15 "Hg10 mi
6:00 AM61 °FClear.No wind100%30.15 "Hg10 mi
5:30 AM61 °FClear.No wind94%30.15 "Hg6 mi
5:00 AM61 °FPassing clouds.No wind100%30.15 "HgN/A
4:30 AM61 °FClear.1 mph100%30.15 "Hg10 mi
4:00 AM61 °FClear.2 mph100%30.15 "Hg10 mi
3:30 AM61 °FClear.2 mph100%30.15 "Hg10 mi
3:00 AM63 °FClear.2 mph94%30.18 "Hg10 mi
2:30 AM63 °FClear.No wind94%30.18 "Hg10 mi
2:00 AM63 °FClear.1 mph94%30.18 "Hg10 mi
1:30 AM63 °FClear.2 mph94%30.18 "Hg10 mi
1:00 AM63 °FClear.2 mph94%30.18 "Hg10 mi
12:00 AM63 °FClear.2 mph94%30.18 "Hg10 mi
11:30 PM
Fri, Aug 28
63 °FClear.3 mph94%30.18 "Hg10 mi
11:00 PM63 °FClear.3 mph94%30.18 "Hg10 mi
10:30 PM64 °FClear.No wind88%30.18 "Hg10 mi
10:00 PM64 °FMostly cloudy.2 mph94%30.15 "HgN/A
9:30 PM64 °FPartly cloudy.2 mph88%30.15 "HgN/A
9:00 PM64 °FBroken clouds.3 mph88%30.15 "HgN/A
8:30 PM66 °FSunny.3 mph83%30.15 "Hg10 mi
8:00 PM66 °FSunny.No wind83%30.15 "Hg10 mi
7:30 PM68 °FSunny.5 mph83%30.12 "Hg10 mi
7:00 PM68 °FPassing clouds.5 mph83%30.12 "HgN/A
6:30 PM68 °FCloudy.5 mph83%30.12 "HgN/A
6:00 PM68 °FMostly cloudy.6 mph83%30.12 "HgN/A
5:30 PM68 °FMostly cloudy.8 mph83%30.12 "HgN/A
5:00 PM70 °FPartly sunny.8 mph78%30.12 "HgN/A
4:30 PM70 °FPartly sunny.9 mph83%30.12 "HgN/A
4:00 PM70 °FPartly sunny.8 mph83%30.12 "HgN/A
3:30 PM68 °FPartly sunny.8 mph88%30.12 "HgN/A
3:00 PM68 °FBroken clouds.8 mph94%30.09 "HgN/A
Weather by CustomWeather, © 2015

See weather overviewHow to use our weather pages